Wind_Speed
7 3 4 5 5 3 3 5 15 16 14 8 12 24 27 32 27 23 27 29 32 30 22 17 15 16 17 17 18 19 21 20 21 22 23 23 24 26 29 29 28 29 29 30
4 3 2 2 3 5 5 9 12 10 2 7 16 26 22 14 13 23 27 23 29 28 23 17 17 18 16 16 17 18 18 18 18 20 21 24 27 27 28 30 31 28 28 28
3 2 4 2 4 5 4 6 5 8 11 5 14 9 6 5 7 8 21 29 27 23 19 20 20 16 16 15 15 14 14 15 17 19 21 22 24 26 26 23 28 30 30 29
5 3 1 2 4 3 4 4 5 8 10 6 8 6 7 8 12 4 11 13 23 23 23 20 19 17 15 13 13 13 14 16 16 18 21 23 24 27 25 23 23 26 28 29
3 1 1 2 4 4 8 5 9 3 2 4 2 3 9 5 7 9 7 11 9 11 14 14 13 12 13 12 13 14 13 14 14 19 21 23 24 25 25 23 24 21 20 21
6 3 2 3 3 4 8 6 3 2 1 1 2 1 6 4 4 7 5 14 7 2 5 6 8 10 11 12 12 13 13 13 14 17 19 22 23 23 23 23 22 22 22 21
5 2 2 2 4 2 6 5 4 5 5 3 2 2 11 11 10 4 9 14 9 6 6 7 9 10 10 10 11 12 14 14 15 16 17 19 21 20 20 21 22 23 23 25
4 6 1 2 1 2 4 3 3 4 4 6 3 5 6 4 11 20 13 12 7 10 11 11 10 10 10 11 12 13 14 15 15 15 17 17 18 18 18 20 21 25 26 25
4 5 2 1 1 3 2 3 1 1 2 3 4 7 10 4 5 7 7 6 7 9 10 11 12 12 12 11 11 13 12 12 13 14 17 18 21 22 21 17 18 20 23 26
2 5 1 2 2 4 2 4 2 2 5 5 4 5 5 4 5 6 8 14 13 13 14 15 15 15 15 16 14 13 13 14 13 15 16 18 22 22 23 22 20 19 20 22
3 2 4 1 4 6 2 1 3 3 2 2 4 7 5 5 5 7 9 16 16 17 16 16 16 17 18 19 19 18 17 16 15 15 16 18 20 20 20 23 25 22 17 16
3 3 4 5 1 2 1 4 4 3 3 2 1 8 3 6 6 9 16 20 21 25 23 21 21 19 19 21 21 21 20 19 17 16 17 18 20 20 20 23 25 27 18 16
5 1 5 4 3 2 3 4 3 4 2 7 4 7 2 5 7 16 20 30 28 23 21 23 25 27 28 27 26 24 22 21 19 18 18 18 18 19 18 20 24 25 24 17
7 2 7 7 7 1 5 5 6 5 3 4 11 15 25 17 11 20 25 31 31 29 23 20 19 18 18 21 23 26 24 21 20 19 18 18 18 17 18 19 22 21 23 24
4 5 6 13 14 13 20 20 14 14 16 8 2 8 17 18 16 23 28 30 29 29 27 23 20 18 18 19 19 22 26 21 21 20 18 17 17 17 17 17 16 17 20 21
4 4 1 8 12 12 12 20 16 20 19 24 24 27 24 33 23 19 25 21 27 31 25 23 22 19 17 17 18 16 17 20 21 21 19 17 17 16 16 15 14 14 14 16
7 3 2 5 3 8 8 7 7 6 8 7 9 13 5 8 7 13 22 25 24 28 24 23 23 24 21 18 16 18 17 19 20 20 18 17 16 15 15 13 13 13 12 12
6 5 2 4 4 2 4 4 6 10 7 17 10 8 12 15 22 21 26 19 23 25 24 25 26 27 25 23 20 17 18 20 19 20 18 16 16 15 13 12 11 11 10 10
6 5 3 3 3 8 9 1 3 4 6 14 14 12 17 17 8 14 24 15 30 31 31 28 23 27 27 24 22 20 20 21 20 19 18 16 15 14 13 11 10 8 8 6
4 3 4 2 4 6 3 2 1 2 5 4 11 6 7 4 10 10 25 30 31 31 36 26 25 27 25 23 23 23 22 23 23 19 16 16 16 15 13 11 9 7 6 5
3 1 12 12 6 7 12 6 2 1 4 2 6 7 10 4 12 31 39 42 43 44 39 33 32 28 26 24 24 26 25 26 23 18 19 19 17 17 15 12 10 8 6 4
6 7 5 4 5 8 8 1 4 4 11 21 25 23 22 31 36 39 46 47 45 43 41 34 32 33 25 24 23 24 28 28 23 22 22 21 19 18 17 15 13 11 9 7
4 7 4 9 8 7 7 14 28 31 26 21 23 32 33 35 38 43 44 46 45 44 42 39 36 29 32 32 28 26 26 28 27 27 27 22 22 20 19 18 16 14 12 9
6 9 4 5 6 22 26 33 39 31 24 31 35 36 35 39 40 40 41 43 43 41 42 41 41 43 41 35 33 31 29 23 26 29 30 26 24 23 22 21 19 17 15 12
2 2 7 10 15 28 28 30 18 33 37 44 50 44 38 36 40 36 42 45 44 44 43 42 43 41 40 36 34 33 30 31 29 31 32 31 28 26 24 23 21 19 16 14
23 17 9 19 29 28 29 34 36 40 39 38 38 43 46 41 40 37 40 41 41 42 41 42 42 42 41 39 34 32 31 29 28 31 34 35 32 30 27 25 24 22 19 17
Wind_Direction
18 19 230 223 201 224 254 255 268 280 288 295 278 286 289 286 268 247 246 253 262 264 261 258 245 246 251 260 272 282 291 295 297 300 300 296 291 285 279 277 270 263 257 250
12 249 225 276 251 251 256 280 285 289 302 304 304 299 294 298 273 240 240 246 257 262 260 255 250 249 250 259 271 283 289 294 302 305 304 304 304 295 279 271 271 266 258 252
188 276 9 304 303 293 257 246 277 283 328 264 328 287 320 310 322 296 249 251 254 250 245 239 245 248 255 260 272 280 290 295 304 308 311 312 314 310 307 285 272 268 260 252
227 279 255 291 266 210 286 206 263 300 341 324 25 294 314 324 327 334 304 269 252 237 228 233 238 244 254 266 268 278 291 303 307 317 314 318 311 304 305 301 294 281 262 253
279 348 10 282 233 186 253 308 291 292 242 298 339 297 276 336 336 353 342 335 292 261 242 230 230 241 255 266 272 283 295 308 307 317 316 322 319 307 296 295 293 289 274 250
259 297 231 235 280 218 298 307 40 71 330 343 295 46 287 303 306 319 335 356 340 169 204 233 252 263 272 278 281 284 289 300 305 316 322 322 316 313 301 291 297 290 280 262
327 256 276 251 316 13 0 359 343 358 8 266 349 274 252 278 279 266 303 311 320 291 278 271 274 280 287 287 286 286 292 300 308 316 325 329 329 308 296 293 291 291 285 272
38 334 102 338 88 319 9 35 106 301 330 300 331 237 262 240 292 296 297 283 274 257 261 268 273 281 290 291 290 292 297 302 307 314 326 327 345 341 319 302 295 280 284 282
18 278 307 160 308 99 8 41 165 258 234 290 268 283 288 302 330 342 333 306 268 252 257 264 272 279 285 288 289 291 299 308 315 322 325 331 337 344 350 334 303 300 290 275
188 303 215 285 126 41 140 150 36 30 347 306 291 282 248 327 340 343 333 314 300 291 284 278 280 281 276 276 279 283 295 307 318 326 328 335 340 338 343 339 334 305 299 285
129 129 286 310 190 170 125 140 74 127 171 225 307 276 217 250 301 311 301 316 313 306 298 292 282 282 277 275 276 279 284 294 306 317 325 329 334 343 344 341 348 330 309 295
195 160 276 256 358 44 148 184 161 133 241 219 169 272 243 249 268 277 295 314 313 313 305 300 294 287 281 279 278 279 280 285 293 304 315 321 326 332 339 345 348 353 329 311
175 223 324 348 48 10 243 206 139 102 70 201 166 259 233 274 292 301 300 314 318 320 314 299 285 280 283 278 274 272 275 279 285 292 299 306 316 326 333 343 352 360 0 339
170 194 196 227 245 139 242 213 201 162 166 205 229 276 278 295 301 312 316 319 325 322 323 321 315 301 299 295 279 263 265 273 278 283 291 301 309 318 327 335 342 351 356 359
175 237 207 253 267 268 267 267 237 215 221 214 274 236 275 293 300 303 306 318 326 333 333 335 325 312 296 303 298 279 255 267 277 278 284 293 302 311 318 325 333 342 356 3
173 262 145 277 251 257 265 255 239 234 237 244 259 276 279 278 288 287 301 320 333 336 333 338 341 335 319 303 301 290 261 267 273 275 280 284 291 299 304 312 318 327 344 357
173 216 293 260 339 306 281 245 177 185 200 201 200 225 274 288 278 300 319 322 333 336 335 336 339 337 330 321 301 282 272 266 268 273 277 279 282 288 292 300 311 314 324 342
168 157 188 283 343 232 260 264 204 206 218 212 252 258 265 265 298 308 330 301 335 331 326 324 317 317 317 319 314 288 273 267 267 270 272 273 275 278 282 290 299 311 314 324
173 153 253 260 232 311 297 161 154 184 274 213 225 251 269 299 306 309 330 314 323 327 320 319 334 329 310 306 313 299 274 267 264 266 266 267 267 269 273 276 284 293 310 324
114 174 180 170 233 240 252 90 194 199 293 175 183 226 266 298 313 313 315 318 319 321 332 316 319 323 323 318 304 301 287 269 265 266 262 258 261 261 263 267 265 273 286 311
123 208 218 231 257 283 264 279 202 149 257 119 202 284 265 221 276 303 315 314 313 313 316 309 303 315 313 308 302 295 289 274 273 262 256 253 252 255 257 256 255 252 255 266
197 180 206 210 236 277 247 161 197 248 309 331 326 326 312 311 312 313 315 311 312 311 308 303 300 305 306 304 300 296 289 285 271 256 252 252 247 246 250 250 245 242 240 245
226 206 221 202 213 262 245 265 281 287 300 310 319 315 315 314 309 308 308 308 307 306 306 307 304 302 301 299 289 284 289 288 273 256 251 248 246 241 241 243 242 235 234 235
232 237 238 266 229 250 275 301 297 305 315 315 313 310 310 306 306 303 303 303 301 300 300 305 300 299 298 293 288 280 273 285 272 258 251 246 240 240 238 237 236 235 232 233
240 163 249 261 272 283 285 285 301 304 303 307 306 308 306 306 303 302 302 301 300 300 301 301 298 296 295 294 288 284 273 261 271 258 249 242 239 235 235 236 237 237 236 234
247 245 253 272 281 283 292 294 299 302 300 300 305 307 304 305 301 302 299 300 299 297 297 299 298 296 296 297 292 285 276 261 262 258 246 240 235 233 229 229 229 229 228 230
Height
1533 1537 1534 1532 1534 1533 1535 1536 1529 1517 1511 1508 1496 1483 1468 1462 1463 1463 1461 1462 1465 1468 1473 1475 1477 1477 1479 1480 1481 1480 1478 1477 1475 1473 1472 1470 1469 1468 1467 1465 1466 1466 1467 1468
1539 1538 1531 1532 1533 1535 1535 1533 1523 1512 1510 1508 1492 1477 1461 1456 1452 1452 1453 1455 1458 1462 1467 1471 1472 1473 1474 1475 1475 1475 1473 1472 1471 1469 1466 1464 1460 1459 1458 1457 1457 1458 1459 1460
1540 1533 1532 1533 1533 1534 1532 1529 1524 1520 1512 1504 1496 1470 1463 1456 1454 1450 1451 1450 1451 1454 1459 1464 1467 1469 1470 1470 1470 1471 1470 1469 1467 1464 1461 1458 1454 1451 1448 1449 1448 1449 1449 1451
1537 1531 1530 1531 1532 1530 1528 1519 1519 1518 1518 1513 1507 1494 1471 1462 1454 1453 1452 1450 1449 1449 1453 1458 1462 1465 1467 1467 1467 1467 1467 1465 1463 1460 1457 1453 1449 1446 1444 1441 1441 1439 1439 1440
1529 1530 1530 1530 1528 1527 1521 1516 1517 1516 1519 1516 1511 1514 1471 1465 1454 1451 1451 1450 1450 1452 1454 1457 1460 1463 1464 1464 1464 1465 1464 1462 1460 1458 1454 1449 1446 1441 1438 1436 1434 1432 1432 1433
1533 1531 1531 1529 1526 1525 1521 1515 1517 1520 1513 1517 1514 1515 1478 1467 1460 1454 1451 1452 1453 1452 1456 1459 1461 1462 1462 1462 1462 1461 1461 1460 1458 1454 1452 1447 1442 1437 1434 1432 1429 1428 1427 1427
1534 1529 1529 1528 1527 1524 1524 1522 1521 1512 1523 1506 1516 1515 1482 1464 1461 1459 1455 1452 1455 1457 1458 1459 1461 1461 1460 1459 1459 1458 1458 1457 1454 1452 1449 1444 1439 1434 1430 1427 1424 1422 1421 1419
1550 1533 1526 1527 1528 1530 1530 1531 1545 1536 1530 1525 1516 1509 1469 1463 1459 1456 1454 1454 1454 1456 1458 1459 1459 1459 1458 1457 1456 1456 1455 1453 1451 1448 1444 1440 1436 1430 1426 1422 1419 1417 1414 1413
1550 1534 1527 1527 1526 1529 1531 1535 1536 1540 1553 1541 1514 1495 1469 1460 1458 1456 1455 1455 1454 1454 1456 1456 1456 1456 1456 1455 1455 1454 1451 1449 1446 1443 1440 1437 1432 1427 1422 1418 1415 1412 1409 1406
1544 1549 1529 1527 1527 1529 1528 1533 1540 1546 1544 1519 1506 1507 1482 1462 1459 1458 1457 1455 1454 1454 1454 1454 1454 1453 1452 1452 1451 1449 1448 1445 1442 1439 1436 1432 1428 1424 1421 1416 1411 1407 1403 1400
1545 1550 1531 1529 1527 1527 1533 1534 1541 1546 1543 1538 1541 1483 1470 1466 1463 1461 1457 1455 1453 1452 1451 1450 1450 1449 1448 1448 1446 1445 1443 1440 1438 1436 1433 1429 1426 1423 1419 1414 1407 1400 1396 1393
1544 1550 1550 1527 1529 1527 1526 1528 1530 1535 1543 1545 1546 1502 1463 1462 1461 1459 1455 1453 1451 1449 1447 1445 1444 1443 1442 1441 1440 1438 1437 1436 1435 1432 1430 1427 1424 1421 1416 1410 1405 1399 1393 1389
1542 1549 1553 1519 1531 1529 1528 1528 1529 1537 1538 1535 1535 1487 1461 1461 1458 1456 1454 1449 1445 1440 1438 1437 1436 1435 1435 1434 1433 1432 1431 1430 1430 1428 1426 1424 1422 1418 1413 1408 1402 1397 1391 1385
1537 1544 1538 1526 1516 1523 1525 1524 1525 1525 1542 1523 1501 1470 1450 1457 1459 1451 1449 1446 1441 1437 1434 1430 1428 1427 1427 1425 1423 1424 1425 1425 1424 1423 1422 1420 1417 1414 1410 1405 1401 1397 1392 1386
1536 1538 1536 1524 1521 1520 1512 1509 1513 1518 1507 1510 1476 1479 1460 1458 1457 1452 1448 1443 1437 1432 1429 1427 1424 1421 1420 1419 1417 1415 1416 1418 1418 1417 1416 1415 1413 1410 1407 1404 1400 1396 1392 1387
1535 1531 1537 1521 1511 1511 1509 1492 1494 1497 1497 1494 1482 1475 1460 1454 1452 1448 1443 1440 1434 1430 1427 1424 1422 1419 1416 1414 1413 1411 1410 1412 1411 1411 1410 1409 1408 1406 1404 1402 1399 1395 1392 1387
1530 1530 1529 1510 1513 1513 1496 1471 1474 1478 1479 1478 1481 1460 1453 1450 1447 1444 1439 1437 1434 1430 1426 1423 1419 1416 1413 1410 1407 1406 1406 1405 1405 1405 1405 1404 1402 1401 1400 1399 1397 1394 1390 1387
1523 1528 1528 1515 1517 1508 1461 1463 1462 1465 1464 1464 1458 1453 1450 1447 1445 1444 1441 1435 1432 1427 1423 1419 1415 1412 1409 1406 1403 1400 1400 1399 1398 1399 1399 1398 1398 1397 1396 1395 1393 1391 1389 1386
1512 1520 1519 1517 1523 1490 1463 1460 1462 1460 1450 1447 1449 1449 1446 1445 1445 1440 1437 1433 1430 1426 1421 1416 1411 1406 1403 1401 1399 1396 1394 1394 1393 1392 1393 1394 1393 1393 1392 1391 1390 1388 1387 1385
1513 1515 1520 1525 1516 1489 1454 1456 1458 1459 1456 1442 1446 1446 1446 1444 1439 1433 1429 1427 1422 1419 1415 1410 1406 1402 1398 1395 1393 1391 1389 1388 1386 1387 1387 1387 1388 1388 1388 1387 1386 1385 1383 1382
1518 1521 1512 1505 1503 1483 1461 1457 1457 1460 1448 1441 1444 1443 1441 1441 1437 1427 1421 1416 1414 1409 1406 1403 1400 1396 1392 1389 1385 1383 1383 1381 1382 1382 1381 1381 1381 1383 1383 1382 1383 1382 1380 1380
1497 1508 1508 1501 1496 1477 1452 1458 1460 1445 1439 1440 1439 1436 1434 1429 1423 1418 1412 1405 1401 1399 1397 1394 1389 1389 1386 1383 1378 1375 1373 1375 1376 1376 1374 1375 1375 1376 1378 1378 1378 1378 1378 1377
1489 1481 1476 1481 1464 1450 1450 1446 1443 1440 1438 1438 1435 1433 1428 1422 1416 1410 1403 1398 1394 1391 1388 1385 1381 1378 1378 1375 1371 1366 1365 1366 1368 1368 1368 1367 1370 1370 1371 1372 1373 1373 1374 1374
1473 1470 1469 1466 1450 1449 1445 1443 1440 1439 1436 1433 1429 1425 1423 1416 1410 1405 1399 1393 1387 1382 1378 1375 1370 1366 1365 1364 1363 1359 1356 1356 1357 1358 1359 1361 1361 1363 1365 1366 1367 1369 1369 1370
1469 1465 1459 1450 1448 1443 1442 1438 1437 1433 1431 1426 1421 1417 1413 1409 1400 1398 1390 1383 1378 1372 1368 1365 1359 1355 1352 1352 1351 1351 1347 1345 1346 1347 1349 1351 1353 1354 1358 1360 1362 1364 1365 1366
1459 1454 1452 1437 1443 1441 1436 1437 1432 1426 1423 1419 1414 1406 1402 1400 1393 1388 1381 1375 1370 1363 1360 1355 1350 1346 1341 1340 1339 1339 1338 1336 1335 1336 1337 1340 1343 1347 1348 1352 1355 1358 1360 1361